Find Starlink 3176

NORAD ID: 51106 Int'l Des: 2022-005 Owner: SPXS Country: US Constellation: starlink operational
LEOCIRCULAR

Live-Position

3D-Globus wird geladen...

Über Starlink 3176

Beschreibung wird geladen...

Nächste Überflüge

Passes for default location (London). Set your location on the main map for personalized predictions.

Höhenverlauf

Loading altitude history...

Zweizeiliger Elementsatz

1 51106U 22005C 26126.45299441 .00004890 00000-0 32479-3 0 9996
2 51106 53.2183 29.8103 0001381 81.9616 278.1533 15.08873345237593
Epoch: 6. Mai 2026 • Age: 14 hours

Aktueller Status

Höhe 553.3 km
Geschwindigkeit 7.58 km/s
Subsatellitenpunkt -39.46°S, 110.32°E
Startdatum 19. Jan. 2022
Alter 4.2 years
Typ internet

Technische Details

Klassifizierung Payload
Masse 297.00 kg
Trockenmasse 275.00 kg
Gesamtmasse 297.00 kg
Länge 0.20 m
Durchmesser 2.80 m
Spannweite 9.00 m
Form Box + pan
Hersteller SPXS
Bus-Typ Starlink
Phasenstatus In Orbit
Besitzer/Staat SPXS/US

Most Searched